Wind_Speed
13 15 22 28 26 26 28 25 24 21 23 24 22 21 21 21 22 22 19 18 18 17 18 17 17 18 17 16 16 15 15 16 14 13 13 14 12 12 11 13 12 13 12
14 11 17 25 23 23 25 24 23 22 20 20 24 24 24 23 21 23 22 21 20 19 18 18 18 17 18 17 15 14 13 13 12 12 11 11 12 11 10 10 10 10 11
12 9 14 22 21 22 23 23 24 23 21 19 21 21 22 21 21 20 20 22 22 20 20 19 18 17 16 16 15 14 13 13 10 10 10 11 9 8 9 9 8 8 8
11 8 14 18 20 20 22 23 23 23 22 21 20 20 19 18 19 20 19 20 19 19 18 18 18 18 17 16 15 14 13 12 11 9 9 11 9 6 7 7 6 5 5
9 9 16 16 18 19 20 21 22 22 22 21 20 20 22 21 19 20 22 19 19 19 19 17 17 18 16 15 15 14 13 12 12 10 8 11 11 5 6 6 5 2 2
9 10 13 14 16 18 19 20 20 21 21 20 20 20 17 18 20 16 15 14 16 18 20 19 19 15 16 16 16 15 13 13 12 11 9 9 11 6 5 6 7 4 2
10 11 11 13 14 18 18 19 20 21 20 20 20 20 20 20 16 17 12 15 15 16 17 20 19 18 16 15 14 14 13 13 13 12 12 10 8 7 4 4 6 5 1
12 12 13 15 14 16 17 19 20 21 21 21 21 19 20 19 19 18 17 19 18 15 15 15 16 15 14 14 13 14 13 12 13 13 12 12 9 8 7 5 6 5 3
12 13 13 14 16 18 18 18 19 20 20 20 20 20 18 18 19 20 19 20 18 15 11 12 12 11 13 14 13 13 11 12 12 14 13 13 12 9 9 8 7 6 4
13 14 15 14 14 17 17 18 19 20 20 20 20 20 18 17 19 19 17 19 20 18 17 14 10 9 10 12 12 12 11 10 13 14 14 13 13 11 9 8 8 8 8
13 15 15 15 15 15 16 16 17 18 19 18 18 18 17 18 19 19 21 20 17 17 16 16 16 11 8 9 11 11 12 12 11 12 13 13 13 14 12 10 10 10 9
12 13 14 15 15 15 16 16 17 18 19 19 19 19 20 20 21 20 21 20 20 19 19 18 17 17 17 16 15 13 15 15 13 13 11 12 13 14 14 12 11 13 13
10 11 13 14 14 15 15 16 17 19 20 20 20 21 21 21 21 22 22 22 22 22 22 21 20 20 20 19 18 17 16 14 14 13 12 11 11 12 12 12 15 16 18
8 11 11 12 13 14 15 16 17 19 19 20 21 21 22 23 23 24 25 25 25 26 25 25 24 22 20 19 19 18 17 16 16 14 13 12 12 11 14 15 16 17 19
7 8 9 9 11 13 14 15 16 18 18 19 20 21 21 22 24 24 25 25 26 26 27 26 26 24 23 21 20 19 19 18 16 15 15 13 14 13 14 16 17 16 17
6 6 7 8 10 10 12 13 14 16 16 17 19 20 21 22 23 23 24 25 26 26 26 26 26 25 25 24 22 20 18 17 17 16 15 15 14 16 16 19 17 17 18
7 6 5 6 7 8 10 12 13 14 15 17 18 19 20 21 21 22 23 24 25 25 25 25 25 24 25 25 23 21 18 16 16 19 17 16 16 16 19 21 20 18 18
9 7 6 5 5 6 8 10 11 12 14 16 16 17 18 19 19 21 22 23 23 24 25 25 27 25 28 26 24 21 16 16 17 21 19 20 19 21 19 23 24 21 21
10 8 6 5 5 6 8 9 11 11 13 14 15 16 16 18 19 21 23 22 24 25 27 25 24 25 28 27 25 17 14 13 24 21 23 23 25 22 22 23 24 25 26
9 7 5 4 4 6 7 8 9 11 12 13 15 15 15 18 20 21 22 24 24 25 27 27 21 20 23 24 21 14 13 7 19 21 26 24 28 24 28 26 29 28 24
11 8 5 4 4 6 9 8 6 7 10 12 14 15 16 18 20 21 22 24 25 27 27 28 23 19 23 29 14 11 10 6 13 16 26 32 25 34 28 31 26 24 32
13 10 7 5 4 4 6 6 5 5 8 11 13 15 16 17 19 21 22 23 24 24 26 28 26 17 17 25 16 7 6 6 18 8 20 32 31 33 29 29 25 31 29
16 12 8 6 5 4 5 7 9 8 6 6 9 13 16 16 18 19 20 21 22 23 24 24 26 24 17 18 22 11 4 4 19 8 16 20 34 30 32 31 31 31 26
19 14 11 8 7 6 6 7 8 8 7 6 9 12 13 15 16 17 18 19 20 20 21 21 22 21 19 17 8 12 8 3 4 7 16 16 31 25 28 36 31 26 28
21 17 13 11 9 8 8 8 8 9 9 8 8 9 11 12 14 15 16 17 17 18 18 18 19 20 18 14 12 10 7 7 4 6 8 27 28 26 29 26 27 29 28
21 19 16 13 12 10 9 8 7 7 8 7 7 7 8 8 10 12 13 14 15 15 16 17 17 16 15 14 12 9 7 5 11 9 11 19 24 28 32 24 21 26 35
Wind_Direction
340 355 20 14 7 12 17 30 36 40 35 38 41 45 48 50 47 46 47 45 46 42 43 43 43 43 43 46 47 48 55 60 61 61 63 62 65 68 71 75 78 77 82
332 352 19 19 11 17 21 30 37 41 44 40 38 41 43 47 46 43 43 41 41 40 40 38 39 38 38 42 42 44 45 48 49 52 56 61 62 63 62 62 67 85 93
350 4 25 16 13 21 26 31 36 41 44 44 45 41 42 44 47 45 45 44 42 40 37 35 37 35 38 41 38 37 37 42 40 42 46 51 46 57 49 49 62 63 90
356 18 33 11 17 25 29 33 36 38 41 42 43 47 49 48 45 48 50 50 49 50 45 39 33 34 32 32 33 32 30 30 31 30 39 31 32 46 48 44 49 51 72
7 29 39 20 22 29 33 37 38 38 39 39 42 41 42 42 42 40 42 46 46 48 45 41 42 38 30 31 29 25 24 24 25 24 19 28 28 44 39 32 35 51 108
26 31 44 27 31 34 35 37 40 41 41 40 41 41 44 41 41 33 23 31 35 37 37 37 38 36 38 31 22 20 22 21 19 19 13 18 17 25 16 20 16 25 158
40 38 39 36 39 38 40 41 41 42 46 45 43 45 43 45 42 41 28 28 27 24 24 27 28 31 30 30 23 26 22 19 18 16 12 9 6 10 352 355 6 12 162
51 50 49 49 47 47 41 43 42 42 44 45 45 48 49 48 46 42 39 35 31 25 10 18 23 26 28 25 22 23 30 26 25 18 14 9 360 356 0 346 343 345 317
62 60 60 58 56 58 51 44 44 44 46 50 51 55 53 52 50 47 45 38 35 31 14 5 9 21 22 17 17 23 31 32 30 21 18 13 2 351 357 355 343 340 313
69 65 63 65 62 64 57 58 59 57 60 57 58 55 52 51 50 47 46 43 41 39 35 26 3 10 18 11 8 10 15 20 31 22 20 13 11 1 357 360 351 340 326
68 66 66 68 66 69 65 63 63 61 59 57 55 54 49 47 46 44 47 44 42 38 37 34 30 22 10 4 4 3 3 10 14 21 18 12 8 0 353 348 348 345 340
68 66 66 68 70 72 71 65 65 60 58 56 54 52 51 48 47 46 44 43 41 39 36 34 27 24 20 9 1 358 5 2 1 360 4 6 5 360 354 349 357 355 347
75 73 72 71 71 72 71 67 66 64 61 59 56 55 54 50 46 43 40 37 35 33 30 27 26 25 22 16 11 8 1 357 353 348 347 344 359 4 353 349 346 351 350
89 74 74 73 72 72 70 67 66 66 63 61 58 55 53 51 49 45 42 39 35 33 31 28 27 24 22 19 13 9 5 1 355 344 338 334 333 342 349 348 348 347 340
105 90 79 79 78 73 70 68 67 65 63 62 60 58 56 54 51 48 45 42 38 35 32 29 25 22 20 18 16 11 7 2 358 350 339 335 326 321 329 336 344 340 340
129 110 89 81 76 76 73 71 69 68 66 64 62 60 58 55 52 48 46 43 40 36 33 31 26 24 19 16 15 15 11 6 4 1 353 345 338 336 340 341 335 335 337
153 131 116 91 88 84 79 73 71 67 66 66 63 60 57 56 53 52 49 45 40 37 34 31 28 26 19 16 15 12 13 22 27 23 24 15 2 353 4 0 353 342 333
171 159 132 116 112 106 94 83 78 73 70 67 66 65 63 61 58 56 53 49 45 42 38 35 29 27 21 14 10 7 23 32 41 32 33 27 21 13 1 2 359 355 344
178 170 156 135 129 132 121 101 81 78 73 69 67 65 64 61 59 58 53 48 44 41 37 35 34 29 18 14 9 10 38 53 33 30 28 26 13 17 11 1 355 357 356
185 179 170 150 136 149 141 119 95 81 78 74 71 68 66 61 56 56 51 47 43 39 35 33 32 30 20 6 9 22 25 54 29 24 20 18 14 14 2 360 354 353 354
193 188 179 162 145 155 164 146 118 91 78 73 68 65 62 58 54 51 50 47 44 40 37 32 33 28 20 17 3 2 24 58 3 21 12 7 13 1 3 359 2 357 345
196 194 187 176 151 142 158 173 154 117 82 72 66 63 60 57 54 50 48 46 44 42 39 35 32 31 27 25 11 345 5 352 343 6 6 1 359 359 359 359 359 350 352
201 198 193 183 163 139 140 154 149 141 117 89 71 65 59 57 55 52 49 47 46 43 40 37 33 33 29 30 36 38 355 353 333 335 353 357 354 356 353 353 346 352 352
200 196 197 190 174 156 137 150 182 184 162 111 77 67 62 57 55 53 49 48 46 45 43 40 36 35 36 31 35 37 32 328 347 324 334 347 347 347 348 346 348 348 347
195 194 192 189 181 167 154 146 140 135 124 111 92 76 64 56 53 51 49 48 47 46 42 39 37 35 33 32 31 13 9 2 102 321 317 328 338 340 338 340 341 340 341
192 195 195 192 186 181 172 165 152 142 131 118 102 88 71 60 50 46 45 44 43 43 40 36 33 31 28 24 17 11 11 355 329 328 314 323 324 327 328 335 342 336 338
Height
896 893 890 887 887 882 878 874 871 869 868 867 865 864 863 862 860 860 860 859 858 857 855 853 852 850 849 848 846 846 846 844 844 843 842 842 841 841 841 839 838 839 838
897 894 892 890 890 886 882 879 875 872 871 869 868 867 865 864 864 862 861 861 860 859 857 857 854 853 851 849 850 849 847 845 846 846 846 845 844 843 843 843 841 840 840
896 894 893 892 891 888 885 882 879 876 873 872 871 870 868 868 866 865 864 863 862 861 858 858 856 856 855 853 852 851 850 848 849 847 847 845 846 845 844 844 844 843 841
895 894 892 893 891 889 886 883 881 879 876 874 873 872 871 870 869 867 867 865 865 862 861 860 858 857 855 854 854 853 851 850 849 849 847 846 845 846 845 845 845 844 844
894 893 892 893 892 889 887 885 883 880 878 876 874 873 872 870 870 868 866 865 865 863 862 862 860 858 858 856 855 854 853 851 849 849 849 846 847 847 846 846 846 845 845
893 892 891 893 892 890 888 886 883 881 880 878 875 873 871 870 868 867 865 864 863 863 863 861 860 859 858 857 855 853 852 850 851 850 849 847 848 847 847 847 847 846 845
893 891 891 891 891 890 888 886 884 881 880 879 877 874 872 869 867 866 865 864 862 861 860 860 859 858 858 856 855 854 853 851 850 850 849 849 849 849 848 848 848 846 846
894 892 891 888 886 886 887 885 883 881 879 877 875 873 871 869 867 865 864 863 862 862 861 860 858 858 857 855 854 853 852 852 851 852 850 849 850 849 849 848 848 847 847
895 893 891 889 887 884 884 884 882 880 878 876 874 872 871 869 868 866 865 864 862 861 860 859 859 858 856 855 855 854 853 852 851 851 851 850 850 850 848 848 849 848 847
896 895 892 890 889 885 885 884 881 880 878 876 874 872 872 870 868 866 865 864 863 861 860 859 858 858 857 855 854 854 853 853 852 851 851 851 850 851 848 848 848 847 847
897 894 893 891 889 887 887 886 883 881 879 877 876 874 872 870 869 867 866 865 863 862 860 858 858 857 857 855 855 854 853 853 852 852 852 851 850 849 849 850 848 847 846
897 896 894 891 891 889 888 887 884 883 880 879 878 876 874 872 870 869 868 866 865 862 860 858 858 856 855 854 855 854 853 852 852 852 851 850 849 849 849 849 848 847 846
897 898 895 894 893 891 890 889 887 885 882 881 880 878 876 874 872 870 869 867 864 862 860 858 858 857 857 856 856 855 853 852 851 851 851 850 849 849 849 849 848 847 846
898 897 896 895 894 893 892 890 888 886 885 884 883 880 876 875 875 873 870 868 867 865 863 861 860 859 858 858 856 856 854 852 851 850 849 849 848 848 848 848 847 846 846
898 899 898 898 897 894 893 891 890 887 887 886 884 882 880 879 877 875 873 872 871 868 866 863 861 860 859 858 857 855 852 851 849 848 848 848 847 846 845 845 845 846 846
899 899 899 897 896 896 895 893 892 890 889 888 886 884 883 880 878 877 876 874 872 870 868 866 864 862 861 858 856 854 852 850 850 847 846 846 846 846 845 846 844 843 843
897 897 898 897 897 897 896 895 894 893 892 890 888 887 884 883 882 881 878 875 874 871 870 868 866 864 862 858 856 853 852 851 850 847 845 846 846 844 844 844 843 842 841
895 896 895 896 897 897 897 897 896 896 894 891 890 889 887 886 885 883 880 878 877 875 873 870 867 864 862 859 856 854 852 852 851 849 847 847 846 844 844 843 842 841 839
893 894 895 896 896 897 898 897 896 895 894 893 892 891 890 889 886 883 882 880 877 875 873 871 869 867 864 860 856 854 853 853 852 850 848 848 848 845 844 842 840 838 837
894 895 895 896 896 897 897 897 897 896 896 896 895 894 893 889 886 884 882 880 877 875 873 872 870 870 867 863 858 855 853 852 851 849 850 849 847 846 844 841 838 836 835
893 895 896 897 897 897 897 898 899 899 899 898 897 895 892 889 887 885 882 880 877 875 875 873 872 871 868 863 859 855 852 852 850 851 851 851 848 845 843 841 838 837 833
891 893 895 896 896 896 897 897 898 899 900 898 897 895 893 890 888 886 883 881 880 879 878 876 874 874 872 868 866 861 858 855 852 855 854 852 849 846 843 840 839 836 833
889 891 892 893 894 895 896 897 898 900 901 900 899 896 894 892 890 888 886 885 883 882 880 878 876 875 876 875 873 874 870 870 865 857 856 853 850 846 843 839 837 835 833
884 887 890 893 894 895 896 897 899 900 900 899 898 896 895 893 892 890 888 886 885 884 883 881 880 879 878 877 877 879 882 883 878 864 856 855 853 849 844 840 836 834 832
880 885 888 891 893 895 897 898 899 899 898 897 896 896 895 894 893 892 890 889 888 886 885 883 882 880 880 879 881 881 881 880 881 881 867 854 854 852 848 842 837 833 831
880 883 886 888 890 893 895 896 897 897 896 895 894 894 894 895 895 894 893 891 890 888 886 884 883 882 881 880 881 881 881 882 880 879 874 869 862 846 846 842 837 834 829